Weather History for PPIZ - March, 2014

Change the Weather History Date:

Wednesday, March 12, 2014

  Actual Average Record
Temperature  
Mean Temperature -14 °F -  
Max Temperature -8 °F -1 °F 26 °F (1997)
Min Temperature -20 °F -10 °F -41 °F (2015)
Degree Days  
Heating Degree Days 80    
Moisture  
Dew Point -20 °F    
Average Humidity 77    
Maximum Humidity 84    
Minimum Humidity 70    
Precipitation  
Precipitation 0.00 in - - ()
Sea Level Pressure  
Sea Level Pressure 29.47 in    
Wind  
Wind Speed 14 mph (NE)    
Max Wind Speed 21 mph    
Max Gust Speed -    
Averages and records for this station are not official NWS values.
T = Trace of Precipitation, MM = Missing Value Source: NWS Daily Summary

Daily Weather History Graph

Daily Weather History Graph

Search for Another Location

Airport or City:

Trip Planner

Search our weather history database for the weather conditions in past years. The results will help you decide how hot, cold, wet, or windy it might be!

Date:

Astronomy

Mar. 12, 2014 Rise Set
Actual Time 9:26 AM AKDT 8:39 PM AKDT
Civil Twilight 8:26 AM AKDT 9:39 PM AKDT
Nautical Twilight 7:14 AM AKDT 10:51 PM AKDT
Astronomical Twilight 5:50 AM AKDT 12:17 AM AKDT
Moon 3:48 PM AKDT (3/12) 8:44 AM AKDT (3/12)
Length of Visible Light 13h 12m
Length of Day
11h 12m
Waxing Gibbous, 86% of the Moon is Illuminated
Mar 12
Waxing Gibbous
Mar 16
Full
Mar 23
Last Quarter
Mar 30
New
Apr 7
First Quarter

Hourly Weather History & Observations

Time (AKDT) Temp. Windchill Dew Point Humidity Pressure Visibility Wind Dir Wind Speed Gust Speed Precip Events Conditions
12:32 AM -20.2 °F -44.4 °F -25.6 °F 76% 29.48 in - NE 13.8 mph - 0.00 in   Overcast
12:56 AM -18.4 °F -41.2 °F -25.6 °F 70% 29.48 in - NE 12.7 mph - N/A   Overcast
1:56 AM -18.9 °F -43.6 °F -24.9 °F 74% 29.49 in - NNE 15.0 mph - N/A   Overcast
2:56 AM -19.8 °F -45.6 °F -24.9 °F 78% 29.48 in - NNE 16.1 mph - 0.00 in Snow Light Snow
3:56 AM -20.2 °F -45.2 °F -25.6 °F 76% 29.47 in - NE 15.0 mph - N/A   Overcast
4:56 AM -20.9 °F -44.3 °F -26.0 °F 77% 29.48 in - NE 12.7 mph - N/A   Mostly Cloudy
5:36 AM -20.2 °F -42.4 °F -25.6 °F 76% 29.46 in - NE 11.5 mph - 0.00 in Snow Light Snow
5:56 AM -19.8 °F -42.0 °F -26.0 °F 73% 29.47 in - NE 11.5 mph - 0.00 in Snow Light Snow
6:39 AM -20.2 °F -42.4 °F -25.6 °F 76% 29.45 in - NE 11.5 mph - 0.00 in Snow Light Snow
6:49 AM -20.2 °F -43.4 °F -25.6 °F 76% 29.45 in - NE 12.7 mph - 0.00 in Snow Light Snow
6:56 AM -20.2 °F -43.4 °F -25.6 °F 76% 29.45 in - NE 12.7 mph - N/A   Mostly Cloudy
7:06 AM -20.2 °F -43.4 °F -25.6 °F 76% 29.45 in - NE 12.7 mph - N/A   Overcast
7:13 AM -20.2 °F -43.4 °F -25.6 °F 76% 29.45 in - NE 12.7 mph - N/A   Overcast
7:56 AM -18.9 °F -43.6 °F -24.9 °F 74% 29.45 in - NE 15.0 mph - 0.00 in Snow Light Snow
8:45 AM -18.4 °F -42.9 °F -23.8 °F 76% 29.44 in - NE 15.0 mph - 0.00 in Snow Light Snow
8:56 AM -17.9 °F -43.0 °F -22.9 °F 78% 29.45 in - NE 16.1 mph - 0.00 in Snow Light Snow
9:56 AM -16.6 °F -42.1 °F -22.0 °F 76% 29.44 in - NE 17.3 mph - N/A Snow Light Snow
10:32 AM -16.6 °F -42.1 °F -20.2 °F 84% 29.44 in - NNE 17.3 mph - 0.00 in Snow Light Snow
10:56 AM -15.9 °F -41.2 °F -20.9 °F 78% 29.46 in - NE 17.3 mph - 0.00 in Snow Light Snow
11:56 AM -15.0 °F -39.3 °F -19.8 °F 79% 29.47 in - NE 16.1 mph - 0.00 in   Overcast
12:56 PM -14.8 °F -40.5 °F -18.4 °F 84% 29.46 in - NE 18.4 mph - N/A Snow Light Snow
1:27 PM -13.0 °F -38.8 °F -18.4 °F 77% 29.46 in - NE 19.6 mph - 0.00 in   Overcast
1:56 PM -13.0 °F -38.8 °F -17.9 °F 79% 29.47 in - NE 19.6 mph - 0.00 in Snow Light Snow
2:26 PM -11.2 °F -37.0 °F -18.4 °F 70% 29.46 in - NE 20.7 mph - 0.00 in Snow Light Snow
2:56 PM -11.9 °F -38.0 °F -17.0 °F 78% 29.48 in - NE 20.7 mph - 0.00 in Snow Light Snow
3:56 PM -11.2 °F -36.4 °F -16.6 °F 77% 29.47 in - NE 19.6 mph - N/A Snow Light Snow
4:56 PM -10.8 °F -36.6 °F -15.9 °F 78% 29.49 in - NE 20.7 mph - 0.00 in   Overcast
5:56 PM -10.8 °F -34.0 °F -15.9 °F 78% 29.49 in - NE 16.1 mph - 0.00 in   Overcast
6:56 PM -9.4 °F -31.4 °F -14.8 °F 77% 29.47 in - NE 15.0 mph - N/A   Overcast
7:56 PM -9.9 °F -31.3 °F -15.0 °F 78% 29.49 in - ENE 13.8 mph - 0.00 in Snow Light Snow
8:56 PM -9.9 °F -32.1 °F -13.9 °F 83% 29.50 in - ENE 15.0 mph - 0.00 in Snow Light Snow
9:08 PM -9.4 °F -29.8 °F -14.8 °F 77% 29.49 in - ENE 12.7 mph - 0.00 in Snow Light Snow
9:28 PM -9.4 °F -27.9 °F -14.8 °F 77% 29.49 in - NE 10.4 mph - 0.00 in Snow Light Snow
9:43 PM -9.4 °F -28.9 °F -14.8 °F 77% 29.50 in - NE 11.5 mph - 0.00 in Snow Light Snow
9:56 PM -9.4 °F -28.9 °F -14.8 °F 77% 29.50 in - NE 11.5 mph - N/A Snow Light Snow
10:09 PM -9.4 °F -27.9 °F -14.8 °F 77% 29.50 in - NE 10.4 mph - 0.00 in Snow Light Snow
10:56 PM -9.9 °F -28.6 °F -15.0 °F 78% 29.52 in - NE 10.4 mph - 0.00 in   Mostly Cloudy
11:35 PM -9.4 °F -27.9 °F -14.8 °F 77% 29.51 in - ENE 10.4 mph - N/A   Mostly Cloudy
11:56 PM -9.9 °F -29.6 °F -15.0 °F 78% 29.52 in - NE 11.5 mph - N/A   Mostly Cloudy